Location: L�Adrech
(44.2500°N, 6.4167°E)
Time: 21:44:22
(UTC+00:00)

Cosmos 2297 Rocket - Pass Details

Date: 07 June 2020
Orbit: 841 x 842 km, 71.0° (Epoch: 04 July)

Event Time Altitude Azimuth Distance (km) Brightness Sun altitude
Rises 01:08:56 0° 313° (NW) 3,403 5.6 -19.5°
Reaches altitude 10° 01:13:48 10° 276° (W) 2,461 4.4 -19.1°
Maximum altitude 01:14:50 11° 265° (W) 2,424 4.3 -19.0°
Enters shadow 01:14:54 11° 265° (W) 2,424 4.3 -19.0°
